Portada
METAR-TAF:

METAR-TAF

Aeroports :

Pacific Missile Test Facility Barking Sands

Kekaha, Hawaii, Estats Units d'Amèrica

latitud: 22-02-11N, longitud: 159-47-11W, altitud: 4 m

Observació

L'informe es va fer fa 19 minuts, a les 10:10 UTC
Vent 6 kt del Sud/Sud-Est
Temperatura 23°C
Humitat 89%
Pressió 1015 hPa
Visibilitat: 16.1 km
Cel ennuvolat a una alçada de 5500 ft

METAR: PHBK 141010Z AUTO 15006KT 10SM BKN055 23/21 A2996 RMK AO2 T02330206 $

Hora: 00:29 (10:29 UTC)


TAF: manca

Observacions i pronòstics meteorològics de més de 4000 aeroports (METAR i TAF).

Les estacions disponibles són els punts grocs i vermells al mapa.

Posi el ratolí al punt desitjat per veure el nom de l'estació.

Feu clic per veure les observacions i els pronòstics meteorològics.

Per canviar el mapa: feu clic els botons verds amb una creu de color negre per apropar; al botó verd amb un guió per allunyar la imatge; o en les fletxes verdes per a mapes adjacents.


METAR-TAF: